DAL4062 KPDX-KSEA

Flight info

Callsign DAL4062
Flight time 0h 27m
Altitude 16000
Route COUGA KRIEG HAWKZ8
Aircraft B738/M-SDE2E3FGHIRWXY/LB1

Departure

Time 2026-05-04 04:50
Airport Portland International Airport (KPDX)

Arrival

Time 2026-05-04 05:17
Airport Seattle–Tacoma International Airport (KSEA)
Time Latitude Longitude Altitude Speed Heading
2026-05-04 04:20 45.59048 -122.59504 31 ft 0 kts 29°
2026-05-04 04:35 45.59044 -122.59507 31 ft 4 kts 30°
2026-05-04 04:36 45.59022 -122.59527 31 ft 4 kts 23°
2026-05-04 04:36 45.58997 -122.59534 31 ft 4 kts 346°
2026-05-04 04:36 45.58977 -122.59518 31 ft 3 kts 299°
2026-05-04 04:36 45.58976 -122.59515 31 ft 1 kts 298°
2026-05-04 04:39 45.58976 -122.59516 30 ft 2 kts 298°
2026-05-04 04:39 45.59002 -122.59582 30 ft 12 kts 299°
2026-05-04 04:39 45.59032 -122.59661 29 ft 7 kts 298°
2026-05-04 04:40 45.59056 -122.59722 29 ft 7 kts 298°
2026-05-04 04:40 45.59079 -122.59781 29 ft 7 kts 300°
2026-05-04 04:40 45.59084 -122.59792 29 ft 0 kts 300°
2026-05-04 04:42 45.59094 -122.59817 29 ft 5 kts 298°
2026-05-04 04:42 45.59116 -122.59874 28 ft 9 kts 298°
2026-05-04 04:42 45.59139 -122.59985 28 ft 12 kts 271°
2026-05-04 04:42 45.59104 -122.60087 29 ft 12 kts 219°
2026-05-04 04:43 45.59031 -122.60146 29 ft 12 kts 208°
2026-05-04 04:43 45.58962 -122.60202 30 ft 11 kts 209°
2026-05-04 04:43 45.58901 -122.60223 32 ft 9 kts 156°
2026-05-04 04:43 45.58863 -122.60153 34 ft 9 kts 119°
2026-05-04 04:44 45.58822 -122.60047 33 ft 15 kts 118°
2026-05-04 04:44 45.58768 -122.59907 33 ft 16 kts 120°
2026-05-04 04:44 45.58715 -122.59772 36 ft 15 kts 118°
2026-05-04 04:44 45.58664 -122.59642 34 ft 15 kts 119°
2026-05-04 04:45 45.58616 -122.59518 33 ft 14 kts 118°
2026-05-04 04:45 45.58567 -122.59392 32 ft 15 kts 119°
2026-05-04 04:45 45.58513 -122.59254 29 ft 16 kts 119°
2026-05-04 04:47 45.58175 -122.58390 28 ft 9 kts 126°
2026-05-04 04:47 45.58150 -122.58363 29 ft 0 kts 157°
2026-05-04 04:49 45.58114 -122.58556 34 ft 14 kts 299°
2026-05-04 04:49 45.58277 -122.58973 33 ft 84 kts 299°
2026-05-04 04:49 45.58668 -122.59972 37 ft 144 kts 299°
2026-05-04 04:49 45.59221 -122.61397 177 ft 182 kts 298°
2026-05-04 04:50 45.59781 -122.63026 963 ft 180 kts 295°
2026-05-04 04:50 45.60306 -122.64612 1784 ft 176 kts 295°
2026-05-04 04:50 45.60861 -122.66318 2045 ft 202 kts 295°
2026-05-04 04:50 45.61475 -122.68235 2225 ft 222 kts 295°
2026-05-04 04:51 45.62138 -122.70317 2417 ft 237 kts 295°
2026-05-04 04:51 45.62826 -122.72485 2764 ft 243 kts 295°
2026-05-04 04:51 45.63527 -122.74717 3190 ft 248 kts 295°
2026-05-04 04:51 45.64253 -122.77028 3424 ft 264 kts 295°
2026-05-04 04:52 45.65012 -122.79437 3881 ft 272 kts 295°
2026-05-04 04:52 45.65791 -122.81905 4649 ft 272 kts 295°
2026-05-04 04:52 45.66572 -122.84382 5350 ft 274 kts 295°
2026-05-04 04:52 45.67707 -122.86558 5962 ft 278 kts 325°
2026-05-04 04:53 45.69508 -122.87456 6617 ft 279 kts 359°
2026-05-04 04:53 45.71403 -122.86878 7294 ft 281 kts 19°
2026-05-04 04:53 45.73282 -122.86027 7950 ft 285 kts 16°
2026-05-04 04:53 45.75211 -122.85285 8619 ft 289 kts 14°
2026-05-04 04:54 45.77180 -122.84631 9305 ft 292 kts 12°
2026-05-04 04:54 45.79182 -122.84041 10020 ft 294 kts 11°
2026-05-04 04:54 45.81209 -122.83497 10469 ft 309 kts 10°
2026-05-04 04:54 45.83400 -122.82949 10641 ft 331 kts
2026-05-04 04:55 45.85732 -122.82396 10923 ft 347 kts
2026-05-04 04:55 45.88132 -122.81847 11519 ft 352 kts
2026-05-04 04:55 45.90560 -122.81297 12250 ft 353 kts
2026-05-04 04:55 45.93000 -122.80750 12992 ft 356 kts
2026-05-04 04:56 45.95459 -122.80205 13668 ft 359 kts
2026-05-04 04:56 45.97946 -122.79657 14338 ft 364 kts
2026-05-04 04:56 46.00446 -122.79109 15160 ft 362 kts
2026-05-04 04:56 46.02939 -122.78565 15744 ft 361 kts
2026-05-04 04:57 46.05409 -122.78027 16030 ft 359 kts
2026-05-04 04:57 46.07886 -122.77486 16016 ft 361 kts
2026-05-04 04:57 46.10366 -122.76945 16034 ft 359 kts
2026-05-04 04:57 46.12834 -122.76407 16042 ft 359 kts
2026-05-04 04:58 46.15307 -122.75866 16042 ft 359 kts
2026-05-04 04:58 46.17784 -122.75323 16041 ft 359 kts
2026-05-04 04:58 46.20249 -122.74783 16034 ft 359 kts
2026-05-04 04:58 46.22721 -122.74242 16043 ft 359 kts
2026-05-04 04:59 46.25195 -122.73698 16040 ft 359 kts
2026-05-04 04:59 46.27664 -122.73154 16035 ft 359 kts
2026-05-04 04:59 46.30105 -122.72617 16037 ft 359 kts
2026-05-04 04:59 46.32587 -122.72162 16035 ft 359 kts
2026-05-04 05:00 46.35083 -122.72144 16049 ft 359 kts 359°
2026-05-04 05:00 46.37574 -122.72259 16037 ft 352 kts 358°
2026-05-04 05:00 46.42319 -122.72518 15973 ft 332 kts 358°
2026-05-04 05:01 46.44629 -122.72629 15648 ft 331 kts 358°
2026-05-04 05:01 46.46918 -122.72726 15318 ft 328 kts 358°
2026-05-04 05:01 46.49194 -122.72817 14973 ft 325 kts 359°
2026-05-04 05:01 46.51447 -122.72903 14768 ft 318 kts 359°
2026-05-04 05:02 46.53634 -122.72985 14636 ft 310 kts 359°
2026-05-04 05:02 46.55758 -122.73062 14485 ft 301 kts 359°
2026-05-04 05:02 46.57794 -122.73137 14368 ft 293 kts 359°
2026-05-04 05:02 46.59807 -122.73212 14241 ft 285 kts 359°
2026-05-04 05:03 46.61775 -122.73285 13951 ft 284 kts 359°
2026-05-04 05:03 46.63756 -122.73357 13677 ft 282 kts 359°
2026-05-04 05:04 46.69586 -122.73570 12923 ft 281 kts 359°
2026-05-04 05:04 46.71596 -122.73644 12651 ft 297 kts 359°
2026-05-04 05:04 46.73683 -122.73720 12419 ft 302 kts 359°
2026-05-04 05:06 46.86333 -122.64332 11058 ft 309 kts 43°
2026-05-04 05:06 46.87851 -122.62190 11036 ft 297 kts 43°
2026-05-04 05:06 46.89296 -122.60168 11037 ft 285 kts 43°
2026-05-04 05:07 46.90697 -122.58222 11035 ft 272 kts 43°
2026-05-04 05:07 46.91999 -122.56325 11030 ft 259 kts 45°
2026-05-04 05:07 46.93229 -122.54452 10870 ft 253 kts 45°
2026-05-04 05:09 47.04469 -122.41561 7740 ft 273 kts 29°
2026-05-04 05:09 47.06107 -122.40200 7381 ft 268 kts 29°
2026-05-04 05:10 47.07706 -122.38844 7039 ft 263 kts 30°
2026-05-04 05:10 47.09270 -122.37505 6699 ft 258 kts 30°
2026-05-04 05:10 47.10809 -122.36183 6355 ft 254 kts 30°
2026-05-04 05:10 47.12323 -122.34885 6003 ft 250 kts 30°
2026-05-04 05:11 47.13813 -122.33591 5670 ft 245 kts 30°
2026-05-04 05:11 47.15289 -122.32466 5368 ft 234 kts 20°
2026-05-04 05:11 47.16840 -122.32055 5074 ft 227 kts
2026-05-04 05:11 47.18406 -122.32015 5096 ft 228 kts
2026-05-04 05:12 47.20001 -122.31967 5098 ft 232 kts
2026-05-04 05:12 47.21622 -122.31910 5079 ft 230 kts
2026-05-04 05:12 47.23219 -122.31859 5078 ft 229 kts
2026-05-04 05:12 47.24798 -122.31907 5035 ft 225 kts 359°
2026-05-04 05:13 47.26361 -122.31908 4749 ft 225 kts
2026-05-04 05:13 47.27926 -122.31886 4414 ft 223 kts
2026-05-04 05:13 47.29459 -122.31854 4089 ft 217 kts
2026-05-04 05:13 47.30942 -122.31864 3671 ft 216 kts 358°
2026-05-04 05:14 47.32433 -122.31927 3256 ft 213 kts 358°
2026-05-04 05:14 47.33894 -122.31925 2970 ft 204 kts
2026-05-04 05:14 47.35255 -122.31909 2661 ft 191 kts 358°
2026-05-04 05:14 47.36564 -122.31939 2223 ft 186 kts 360°
2026-05-04 05:15 47.37839 -122.31897 1826 ft 177 kts
2026-05-04 05:15 47.39027 -122.31871 1470 ft 164 kts
2026-05-04 05:15 47.40126 -122.31852 1167 ft 152 kts
2026-05-04 05:15 47.41161 -122.31848 945 ft 149 kts
2026-05-04 05:16 47.42224 -122.31835 777 ft 154 kts
2026-05-04 05:16 47.43296 -122.31828 645 ft 154 kts
2026-05-04 05:16 47.44377 -122.31807 407 ft 155 kts
2026-05-04 05:16 47.45369 -122.31800 393 ft 124 kts
2026-05-04 05:17 47.45934 -122.31792 393 ft 33 kts
2026-05-04 05:17 47.46111 -122.31739 393 ft 23 kts 20°
2026-05-04 05:17 47.46207 -122.31670 393 ft 11 kts 31°
2026-05-04 05:17 47.46230 -122.31650 393 ft 0 kts 30°
2026-05-04 05:20 47.46255 -122.31628 393 ft 7 kts 30°
2026-05-04 05:20 47.46300 -122.31589 393 ft 6 kts 30°
2026-05-04 05:20 47.46330 -122.31563 393 ft 5 kts 30°
2026-05-04 05:20 47.46349 -122.31536 393 ft 2 kts 55°
2026-05-04 05:21 47.46351 -122.31530 393 ft 1 kts 55°
2026-05-04 05:21 47.46362 -122.31499 393 ft 6 kts 68°
2026-05-04 05:21 47.46369 -122.31419 393 ft 10 kts 88°
2026-05-04 05:21 47.46311 -122.31346 393 ft 15 kts 179°
2026-05-04 05:22 47.46216 -122.31346 393 ft 16 kts 181°
2026-05-04 05:22 47.46102 -122.31347 393 ft 14 kts 179°
2026-05-04 05:22 47.46025 -122.31330 393 ft 9 kts 136°
2026-05-04 05:22 47.46010 -122.31221 393 ft 13 kts 91°
2026-05-04 05:23 47.46011 -122.31081 393 ft 10 kts 90°
2026-05-04 05:23 47.46011 -122.30982 393 ft 11 kts 89°
2026-05-04 05:23 47.46011 -122.30938 393 ft 0 kts 90°
2026-05-04 05:24 47.46011 -122.30935 393 ft 1 kts 90°
2026-05-04 05:24 47.46011 -122.30890 393 ft 9 kts 90°
2026-05-04 05:24 47.46010 -122.30772 393 ft 11 kts 90°
2026-05-04 05:25 47.46010 -122.30689 393 ft 6 kts 90°
2026-05-04 05:25 47.45998 -122.30644 393 ft 3 kts 137°
2026-05-04 05:25 47.45996 -122.30642 393 ft 0 kts 142°
2026-05-04 05:28 47.45497 -122.30623 393 ft 18 kts 181°
2026-05-04 05:29 47.45361 -122.30622 393 ft 21 kts 179°
2026-05-04 05:29 47.45214 -122.30625 393 ft 21 kts 181°
2026-05-04 05:29 47.45067 -122.30627 393 ft 21 kts 180°
2026-05-04 05:29 47.44925 -122.30627 393 ft 20 kts 180°
2026-05-04 05:31 47.44234 -122.30544 393 ft 11 kts 180°
2026-05-04 05:31 47.44190 -122.30527 393 ft 2 kts 114°
2026-05-04 05:32 47.44185 -122.30496 393 ft 3 kts 91°
2026-05-04 05:32 47.44185 -122.30472 393 ft 2 kts 91°
2026-05-04 05:32 47.44185 -122.30470 393 ft 0 kts 91°